Home   Weather   Eucla   Past weeks

Flag for Australia Past Weather in Eucla, Western Australia, Australia — Yesterday and Last 2 Weeks

Now
65 °F

Mild.


Feels Like: 65 °F
Forecast: 56 / 63 °F
Wind: 13 mph from Southwest

Location: Eucla Amo

Current Time: Apr 25, 2017 at 5:26:43 pm

Latest Report: Apr 25, 2017 at 3:45 pm


Visibility: N/A

Pressure: 30.17 "Hg

Humidity: 63%

Dew Point: 52 °F

Location of EuclaLocation

Past Weather in Eucla — Graph

°F

Eucla Temperature Yesterday

Maximum temperature yesterday: 69 °F (at 12:45 pm)
Minimum temperature yesterday: 56 °F (at 12:45 am)
Average temperature yesterday: 62 °F

High & Low Weather Summary for the Past Weeks

 TemperatureHumidityPressure
High86 °F (Apr 17, 12:45 pm)96% (Apr 15, 5:45 am)30.27 "Hg (Apr 15, 5:45 am)
Low50 °F (Apr 11, 6:45 am)15% (Apr 17, 11:45 am)29.85 "Hg (Apr 17, 2:45 pm)
Average65 °F70%30.11 "Hg
* Reported Apr 10 3:45 pm — Apr 25 3:45 pm, Eucla, Weather by CustomWeather, © 2017

Note: Actual official high and low records may vary slightly from our data, if they occured in-between our weather recording intervals... More about our weather records

Advertising

Eucla Weather History for the Previous 24 Hours

Scroll right to see more
 ConditionsComfort  
Time TempWeatherWind HumidityBarometerVisibility
3:45 pm
Tue, Apr 25
65 °FMild.13 mph63%30.17 "HgN/A
2:45 pm66 °FMild.16 mph64%30.16 "HgN/A
12:45 pm67 °FMild.12 mph54%30.17 "HgN/A
11:45 am70 °FMild.9 mph50%30.17 "HgN/A
9:45 am67 °FMild.10 mph58%30.19 "HgN/A
8:45 am64 °FMild.9 mph65%30.18 "HgN/A
6:45 am56 °FCool.7 mph78%30.15 "HgN/A
5:45 am56 °FCool.8 mph78%30.14 "HgN/A
3:45 am54 °FCool.8 mph81%30.11 "HgN/A
2:45 am56 °FCool.6 mph78%30.11 "HgN/A
12:45 am58 °FCool.6 mph74%30.12 "HgN/A
11:45 pm
Mon, Apr 24
60 °FCool.5 mph72%30.13 "HgN/A
9:45 pm60 °FCool.6 mph77%30.14 "HgN/A
8:45 pm59 °FCool.7 mph77%30.13 "HgN/A
6:45 pm60 °FCool.8 mph85%30.11 "HgN/A
5:45 pm61 °FCool.7 mph90%30.10 "HgN/A
Weather by CustomWeather, © 2017

See weather overviewHow to use our weather pages